Header for Extended Forecast Station List Page

Search by: ID | Name | Date | Parm | Value | Avg | % Avg
Sort by: ID | Name | Date | Parm | Value | Avg | % Avg

Enter search or view all records.

Click on id for station plot
#IDNameDateParmValueAvg% Avg
0LYDM8KOOTENAI-LIBBY DAM08-03-2020INFLOW (KAF)1434153194
1LEOI1KOOTENAI-AT LEONIA08-03-2020DISCHARGE (KAF)1700209581
2BFEI1KOOTENAI-AT BONNERS FERRY08-03-2020STAGE (FT)MMM
3FCFM8NF FLATHEAD-NEAR COLUMBIA FALLS08-03-2020DISCHARGE (KAF)24528087
4WGCM8MF FLATHEAD-NEAR WEST GLACIER08-03-2020DISCHARGE (KAF)245230106
5HHWM8SF FLATHEAD-HUNGRY HORSE DAM08-03-2020INFLOW (KAF)21324089
6CFMM8FLATHEAD-AT COLUMBIA FALLS08-03-2020DISCHARGE (KAF)1125115697
7DLGM8CLARK FORK-AT DEER LODGE08-03-2020DISCHARGE (KAF)7250144
8DRMM8CLARK FORK-NR DRUMMOND08-03-2020DISCHARGE (KAF)171MM
9RCCM8ROCK CREEK-NEAR CLINTON08-03-2020DISCHARGE (KAF)8163128
10BONM8BLACKFOOT-NEAR BONNER08-03-2020DISCHARGE (KAF)15716794
11ABOM8CLARK FORK-ABOVE MISSOULA08-03-2020DISCHARGE (KAF)424378112
12BITM8BITTERROOT-NEAR MISSOULA08-03-2020DISCHARGE (KAF)21222793
13BELM8CLARK FORK-BELOW MISSOULA08-03-2020DISCHARGE (KAF)636610104
14STRM8ST. REGIS-NEAR ST. REGIS08-03-2020DISCHARGE (KAF)3331107
15SRGM8CLARK FORK-AT ST REGIS08-03-2020DISCHARGE (KAF)78179798
16KERM8FLATHEAD-KERR DAM08-03-2020INFLOW (KAF)1257138491
17NOXM8CLARK FORK-NOXON RAPIDS DAM08-03-2020INFLOW (KAF)29392938100
18CABI1CLARK FORK-CABINET GORGE DAM08-03-2020INFLOW (KAF)32363104104
19PRTI1PRIEST-NEAR PRIEST RIVER08-03-2020DISCHARGE (KAF)9117552
20ALFW1PEND OREILLE-ALBENI FALLS DAM08-03-2020INFLOW (KAF)3271343195
21HOPI1PEND OREILLE-PEND OREILLE LAKE NR HOPE08-03-2020LAKE ELEVATION (FT)MMM
22COEI1COEUR D ALENE-COEUR D ALENE LAKE08-03-2020INFLOW (KAF)23626489
23SPOW1SPOKANE-AT SPOKANE08-03-2020DISCHARGE (KAF)388MM
24LLKW1SPOKANE-AT LONGLAKE08-03-2020INFLOW (KAF)56164787
25SATI1ST MARIES-NEAR SANTA08-03-2020DISCHARGE (KAF)1818102
26SJMI1ST JOE-AT ST MARIES08-03-2020STAGE (FT)MMM
27CIBW1COLUMBIA-AT INTL BOUNDARY08-03-2020DISCHARGE (KAF)18524MM
28LAUW1KETTLE-AT LAURIER08-03-2020DISCHARGE (KAF)11513983
29GCDW1COLUMBIA-GRAND COULEE DAM08-03-2020INFLOW (KAF)192651961798
30CHJW1COLUMBIA-CHIEF JOSEPH DAM08-03-2020INFLOW (KAF)187781986995
31TONW1OKANOGAN-NEAR TONASKET08-03-2020DISCHARGE (KAF)351294120
32PATW1METHOW-NEAR PATEROS08-03-2020DISCHARGE (KAF)10411790
33WELW1COLUMBIA-WELLS DAM08-03-2020INFLOW (KAF)192412010196
34CHDW1CHELAN-LAKE CHELAN DAM08-03-2020INFLOW (KAF)17320983
35RRHW1COLUMBIA-ROCKY REACH DAM08-03-2020INFLOW (KAF)196782058596
36ARDW1ENTIAT-NEAR ARDENVOIR08-03-2020DISCHARGE (KAF)242883
37PESW1WENATCHEE-AT PESHASTIN08-03-2020DISCHARGE (KAF)268262103
38WANW1COLUMBIA-WANAPUM DAM08-03-2020INFLOW (KAF)200402021099
39PRWW1COLUMBIA-PRIEST RAPIDS DAM08-03-2020INFLOW (KAF)200442053798
40KEDW1YAKIMA-KEECHELUS LAKE08-03-2020INFLOW (KAF)4632145
41KADW1KACHESS-KACHESS DAM08-03-2020INFLOW (KAF)2921138
42EASW1YAKIMA-AT EASTON08-03-2020DISCHARGE (KAF)516874
43CLUW1CLE ELUM-CLE ELUM LAKE08-03-2020INFLOW (KAF)8476110
44TNAW1TEANAWAY-BELOW FORKS08-03-2020DISCHARGE (KAF)81263
45UMTW1YAKIMA-AT UMTANUM08-03-2020DISCHARGE (KAF)468466100
46BUDW1BUMPING-BUMPING LAKE DAM08-03-2020INFLOW (KAF)2423105
47CLFW1NACHES-NEAR CLIFFDEL08-03-2020DISCHARGE (KAF)758193
48RILW1TIETON-RIMROCK LAKE NEAR RIMROCK08-03-2020INFLOW (KAF)626399
49NACW1NACHES-NEAR NACHES08-03-2020DISCHARGE (KAF)9510491
50PARW1YAKIMA-NEAR PARKER08-03-2020DISCHARGE (KAF)18719596
51KIOW1YAKIMA-AT KIONA08-03-2020DISCHARGE (KAF)46949295
52IPDI1HENRYS FORK-ISLAND PARK DAM08-03-2020INFLOW (KAF)157140112
53CHEI1FALL RIVER-NEAR CHESTER08-03-2020DISCHARGE (KAF)9587110
54ANTI1HENRYS FORK-AT ST. ANTHONY08-03-2020DISCHARGE (KAF)353324109
55TEAI1TETON-NEAR ST. ANTHONY08-03-2020DISCHARGE (KAF)14615396
56REXI1HENRYS FORK-AT REXBURG08-03-2020DISCHARGE (KAF)433390111
57JLKW4SNAKE-JACKSON LAKE AT DAM08-03-2020INFLOW (KAF)13014192
58JKSW4SNAKE-NEAR JACKSON08-03-2020DISCHARGE (KAF)751673112
59ALPW4SNAKE-NEAR ALPINE08-03-2020DISCHARGE (KAF)812805101
60PLDI1SF SNAKE-PALISADES DAM08-03-2020INFLOW (KAF)11431133101
61HEII1SNAKE-NEAR HEISE08-03-2020DISCHARGE (KAF)1304136995
62RIDI1WILLOW CREEK-RIRIE DAM08-03-2020INFLOW (KAF)4671
63SIFI1SNAKE-AB EAGLE ROCK NR IDAHO FALLS08-03-2020DISCHARGE (KAF)11121083103
64SHYI1SNAKE-NEAR SHELLEY08-03-2020DISCHARGE (KAF)1045890117
65SNAI1SNAKE-AT BLACKFOOT08-03-2020DISCHARGE (KAF)730593123
66BFTI1SNAKE-NEAR BLACKFOOT08-03-2020DISCHARGE (KAF)740607122
67PIHI1PORTNEUF-AT POCATELLO08-03-2020DISCHARGE (KAF)333693
68AFRI1SNAKE-AMERICAN FALLS RESERVOIR08-03-2020INFLOW (KAF)13711275108
69MILI1SNAKE-AT MILNER08-03-2020DISCHARGE (KAF)121906
70HOTI1BRUNEAU-NEAR HOT SPRINGS08-03-2020DISCHARGE (KAF)102245
71SWAI1SNAKE-BELOW SWAN FALLS08-03-2020DISCHARGE (KAF)1807218383
72HWRI1BIG LOST-AT HOWELL RANCH NEAR CHILLY08-03-2020DISCHARGE (KAF)193458
73MACI1BIG LOST-MACKAY RESERVOIR NEAR MACKAY08-03-2020INFLOW (KAF)3021143
74HALI1BIG WOOD-AT HAILEY08-03-2020DISCHARGE (KAF)365268
75MAGI1BIG WOOD-MAGIC DAM08-03-2020INFLOW (KAF)172862
76LWRI1LITTLE WOOD-LITTLE WOOD DAM08-03-2020INFLOW (KAF)81553
77OWYO3OWYHEE-OWYHEE DAM08-03-2020INFLOW (KAF)5753107
78ARAI1SF BOISE-ANDERSON RANCH DAM08-03-2020INFLOW (KAF)677096
79LUCI1BOISE-LUCKY PEAK DAM08-03-2020INFLOW (KAF)335MM
80BIGI1BOISE-AT GLENWOOD BRIDGE08-03-2020DISCHARGE (KAF)126121104
81PARI1BOISE-NEAR PARMA08-03-2020DISCHARGE (KAF)21522396
82WRMO3MALHEUR-WARM SPRINGS DAM08-03-2020INFLOW (KAF)86135
83BERO3MALHEUR-AGENCY VALLEY DAM08-03-2020INFLOW (KAF)98108
84BULO3BULLY CREEK-BULLY CREEK DAM08-03-2020INFLOW (KAF)000
85CSDI1NF PAYETTE-CASCADE DAM08-03-2020INFLOW (KAF)7872109
86DEDI1DEADWOOD-NEAR LOWMAN08-03-2020INFLOW (KAF)161987
87EMMI1PAYETTE-NEAR EMMETT08-03-2020DISCHARGE (KAF)420393107
88WSRI1WEISER-NEAR WEISER08-03-2020DISCHARGE (KAF)495098
89WEII1SNAKE-AT WEISER08-03-2020DISCHARGE (KAF)2883317991
90BRNI1SNAKE-BROWNLEE DAM08-03-2020INFLOW (KAF)3019323993
91WHBI1SALMON-AT WHITEBIRD08-03-2020DISCHARGE (KAF)1129118395
92TRYO3GRANDE RONDE-TROY08-03-2020DISCHARGE (KAF)16720482
93ANAW1SNAKE-NEAR ANATONE08-03-2020DISCHARGE (KAF)4102476986
94ORFI1CLEARWATER-AT OROFINO08-03-2020DISCHARGE (KAF)45450290
95DWRI1NF CLEARWATER-DWORSHAK DAM08-03-2020INFLOW (KAF)30737482
96SPDI1CLEARWATER-AT SPALDING08-03-2020DISCHARGE (KAF)15961079148
97LGDW1SNAKE-LOWER GRANITE DAM08-03-2020INFLOW (KAF)5698595396
98LGSW1SNAKE-LITTLE GOOSE DAM08-03-2020INFLOW (KAF)5698598995
99LMNW1SNAKE-LOWER MONUMENTAL DAM08-03-2020INFLOW (KAF)5714598995
100IHDW1SNAKE-ICE HARBOR DAM08-03-2020INFLOW (KAF)5714589997
101TCHW1WALLA WALLA-NEAR TOUCHET08-03-2020DISCHARGE (KAF)2018110
102MCDW1COLUMBIA-MCNARY DAM08-03-2020INFLOW (KAF)263102741496
103GIBO3UMATILLA-NEAR GIBBON08-03-2020DISCHARGE (KAF)141497
104PDTO3UMATILLA-AT PENDLETON08-03-2020DISCHARGE (KAF)171798
105MYKO3MCKAY CREEK-NEAR PILOT ROCK08-03-2020DISCHARGE (KAF)22139
106UMAO3UMATILLA-NEAR UMATILLA08-03-2020DISCHARGE (KAF)7017424
107MONO3NF JOHN DAY-AT MONUMENT08-03-2020DISCHARGE (KAF)363896
108SERO3JOHN DAY-AT SERVICE CK08-03-2020DISCHARGE (KAF)596886
109JDAO3COLUMBIA-JOHN DAY DAM08-03-2020INFLOW (KAF)268902784897
110MODO3DESCHUTES-AT MOODY NR BIGGS08-03-2020DISCHARGE (KAF)1056113393
111TDAO3COLUMBIA-THE DALLES DAM08-03-2020INFLOW (KAF)274822887995
112PITW1KLICKITAT-NEAR PITT08-03-2020DISCHARGE (KAF)16519386
113HODO3HOOD-NEAR TUCKER BRIDGE08-03-2020DISCHARGE (KAF)10911298
114UNDW1WHITE SALMON-NEAR UNDERWOOD08-03-2020DISCHARGE (KAF)14416190
115BONO3COLUMBIA-BONNEVILLE DAM08-03-2020INFLOW (KAF)278813006293